STARLINK-4498 (53434 NORAD) Tracking and Keplerian Element Data

This shows tracking and keplerian element data for the satellite.

Feedback or suggestion? Click here.




ElementValue
Catalog53434
NameSTARLINK-4498
Epoch Orbit799
Epoch Day270.25001157
Epoch Year2022
RAAN10.2125
Inclination53.217
Eccentricity0.0002993
Argument of Perigee14.1401
Mean Anonmoly170.6725
Mean Motion15.73186429
Decay Rate9.816E-05
L11 53434U 22097AY 22270.25001157 .00009816 00000+0 74321-4 0 9997
L22 53434 53.2170 10.2125 0002993 14.1401 170.6725 15.73186429 7993

Live tracking and technical data element details for STARLINK-4498 (NORAD 53434). STARLINK-4498 can be tracked NOW for your location showing map with azimuth and elevation plus other details from your city location.

Track the satellite on the map from your city or location and see movement details for azimuth, elevation, latitude, longitude, range, height, and movement on the map or in text.







IsCatalogInMostPopularTable: catalog: 53434, numindb: 5
Update: records affected: 1



GetName: 53434 STARLINK-4498

Hit Count: updated at: Thu, 29 Sep 2022 11:07:17 GMT